Temperature
20 20 20 20 17 16 18 19 19 19 19 19 19 18 18 17 17 17 18 18 17 17 17 17 17 17 17 17 17 17 17 17 17 17 17 17 17 17 17 17 17 18 18 18 18 18 18 18 18
20 20 20 20 16 17 18 19 19 19 19 19 19 18 18 17 18 18 18 18 17 17 17 17 17 17 17 17 17 17 17 17 17 17 17 17 17 17 17 17 17 17 17 17 17 17 18 18 18
20 20 20 16 17 17 19 19 19 19 20 19 19 18 18 18 18 18 18 18 17 17 17 17 17 17 17 17 17 17 17 17 17 17 17 17 17 17 17 17 17 17 17 17 17 17 17 17 17
20 20 20 17 18 18 19 19 19 19 20 19 19 18 18 18 18 18 18 18 17 17 17 17 17 17 17 17 17 17 17 17 17 17 17 17 17 17 17 17 17 17 17 17 17 17 17 17 17
21 20 17 17 18 19 19 19 20 19 19 19 18 18 18 18 18 18 18 18 17 17 17 17 17 17 17 17 17 17 17 17 17 17 17 17 17 17 17 17 17 17 17 17 17 17 17 17 17
21 18 16 17 19 19 19 20 20 19 19 19 18 17 18 18 18 18 18 18 17 17 17 17 17 17 17 16 16 16 17 17 17 17 17 17 17 17 17 17 17 17 17 17 17 17 17 17 17
20 16 17 18 18 19 20 20 20 19 19 19 19 18 18 18 18 18 18 17 17 17 17 17 17 17 16 16 16 16 16 17 17 16 16 16 16 16 16 16 17 17 17 17 17 17 17 17 16
21 17 18 18 18 19 20 20 20 20 19 20 19 18 18 18 18 18 17 17 17 17 17 17 17 17 17 16 16 16 16 16 16 16 16 16 16 16 16 16 16 16 16 16 16 16 16 16 16
21 17 17 18 19 19 20 20 20 20 20 19 19 19 19 19 18 18 17 17 17 17 17 17 17 17 17 16 16 16 16 16 16 16 16 16 16 16 16 16 16 16 16 16 16 16 16 16 16
20 17 19 19 19 19 20 20 20 20 19 19 19 19 19 18 18 18 18 17 17 17 17 17 17 17 17 16 16 16 16 16 16 16 16 16 16 16 16 16 16 16 16 16 16 16 16 16 16
19 18 19 20 21 21 20 20 20 19 18 19 19 19 19 18 18 18 18 17 17 17 17 17 17 17 16 16 16 16 16 16 16 16 16 16 16 16 16 16 16 16 16 16 16 16 16 16 16
20 20 20 21 21 21 21 20 20 19 20 21 21 20 19 19 18 18 18 18 17 17 17 17 17 17 16 16 16 16 16 16 16 16 16 16 16 16 16 16 16 16 16 16 16 16 16 16 15
20 20 21 21 22 21 21 20 20 20 21 20 20 20 19 19 19 18 18 18 17 17 17 17 17 17 16 16 16 16 16 16 16 16 16 16 16 16 16 16 16 16 16 16 15 15 15 15 15
20 21 21 21 21 21 20 20 20 20 20 20 20 20 19 19 19 18 18 18 18 17 17 17 17 17 17 16 16 16 16 16 16 16 16 16 15 15 15 15 15 15 15 15 15 15 15 15 15
21 20 20 20 21 21 20 19 19 20 20 20 20 20 19 19 19 19 18 18 18 18 17 17 17 17 16 16 16 16 16 16 16 16 16 15 15 15 15 15 15 15 15 15 15 15 15 15 15
20 19 19 20 20 20 20 19 19 20 20 19 19 19 19 19 19 19 19 18 18 18 17 17 17 17 17 16 16 16 16 16 16 15 15 15 15 15 15 15 15 15 15 15 15 15 15 15 14
18 18 19 19 20 19 19 18 18 20 19 19 19 19 19 19 19 19 19 18 18 18 18 17 17 17 17 16 16 16 16 16 15 15 15 15 15 15 15 15 15 15 15 14 14 14 14 14 14
19 19 19 19 19 19 18 18 18 19 18 18 19 19 19 19 19 19 19 18 18 18 17 17 17 17 16 16 16 16 15 15 15 15 15 15 15 15 15 15 14 14 14 14 14 14 14 14 14
19 19 19 19 19 19 18 18 18 18 18 18 18 19 19 19 20 19 19 18 18 18 18 17 17 17 16 16 16 16 16 15 15 15 15 15 15 15 14 14 14 14 14 14 14 14 14 14 14
19 19 19 19 19 19 18 18 17 17 17 18 18 19 19 19 19 19 19 19 18 18 18 17 17 17 16 16 16 16 15 15 15 15 15 15 15 15 15 14 14 14 14 14 14 14 14 14 14
19 19 19 19 19 18 18 18 18 17 18 18 19 19 19 20 20 19 19 19 18 18 18 17 17 17 16 16 16 16 15 15 15 15 15 15 15 14 14 14 14 14 14 14 14 14 14 14 14
19 20 19 19 18 17 18 17 17 17 17 17 18 18 19 19 19 19 19 19 18 18 18 17 17 17 16 16 16 16 16 15 15 15 15 15 14 14 14 14 14 14 14 14 14 14 13 13 13
19 20 19 19 18 17 17 17 16 16 17 17 17 18 19 19 20 20 19 19 19 18 18 18 17 17 16 16 16 16 15 15 15 15 15 14 14 14 14 14 14 14 14 14 13 13 13 13 13
20 18 17 16 16 16 17 16 16 16 17 17 17 18 19 19 20 20 20 19 19 18 18 18 17 17 16 16 16 16 15 15 15 15 14 14 14 14 14 14 14 14 14 13 13 13 13 13 13
19 17 16 16 15 16 17 16 16 17 17 17 17 19 19 19 19 19 19 19 19 18 18 18 17 17 17 16 16 16 15 15 15 15 14 14 14 14 14 14 14 14 14 13 13 13 13 13 13
18 17 16 17 16 16 16 16 17 18 18 18 19 19 19 19 19 19 19 19 19 18 18 18 17 17 17 16 16 16 15 15 15 14 14 14 14 14 14 14 14 14 13 13 13 13 13 13 13
18 17 16 15 16 16 16 16 17 18 18 18 18 18 19 19 19 19 19 19 19 19 18 18 17 17 17 16 16 16 15 15 15 14 14 14 14 14 14 14 14 13 13 13 13 13 13 13 13
18 16 15 15 16 16 16 16 16 18 18 17 17 18 19 19 19 19 19 19 19 19 18 18 17 17 17 16 16 15 15 15 15 14 14 14 14 14 14 14 14 13 13 13 13 13 13 13 13
17 17 15 14 15 15 15 16 17 17 17 16 16 18 18 19 19 19 19 19 19 18 18 18 17 17 16 16 16 15 15 15 14 14 14 14 14 14 14 13 13 13 13 13 13 13 13 13 12
18 17 15 16 15 14 14 15 17 16 16 16 17 17 18 18 19 19 19 18 18 18 18 17 17 17 16 16 16 15 15 15 14 14 14 14 14 14 13 13 13 13 13 13 13 13 12 12 12
Wind_Speed
1 4 3 4 6 6 3 2 1 1 2 2 4 6 6 4 3 2 2 1 2 1 1 1 2 3 3 4 5 5 6 7 7 6 6 6 7 7 7 7 7 8 8 8 9 9 9 9 9
2 2 4 5 5 4 2 2 0 1 3 3 4 5 5 3 1 2 1 1 3 2 2 2 3 3 4 4 5 5 6 6 6 6 6 6 6 6 7 7 7 8 8 8 9 9 9 9 9
2 3 4 5 4 4 2 1 2 2 2 2 3 4 3 2 1 2 2 3 4 2 1 2 4 4 4 4 5 6 6 6 6 7 6 6 6 6 7 7 8 8 8 8 8 9 9 9 10
3 5 5 6 4 1 2 2 3 3 3 4 4 4 2 1 2 3 4 5 4 2 1 1 3 4 4 5 5 5 6 6 7 7 7 7 7 7 7 8 8 8 8 8 8 9 9 9 10
4 5 6 4 2 1 1 1 3 3 2 3 4 4 2 4 2 4 5 5 4 2 1 1 3 3 4 4 5 5 5 6 6 7 7 7 7 7 7 7 8 8 8 9 9 9 9 9 9
4 5 5 2 1 1 1 1 3 3 3 3 4 4 0 2 3 3 4 4 3 3 2 2 2 3 4 4 5 5 5 5 6 6 7 7 7 8 7 7 8 8 8 9 9 9 9 9 9
5 5 4 3 1 1 1 2 3 4 3 3 5 4 1 1 2 4 4 4 2 2 2 2 3 3 3 4 4 5 6 6 6 7 7 8 8 8 8 8 8 8 9 9 9 9 9 9 9
5 5 3 1 2 1 1 2 2 4 3 3 5 5 4 4 4 5 5 4 3 2 2 2 3 3 3 3 3 5 5 6 6 7 7 7 8 8 8 8 8 9 9 9 9 9 10 9 10
4 5 2 3 4 2 1 2 0 1 4 2 1 3 3 6 7 6 4 3 2 1 1 2 2 2 2 2 3 5 6 6 7 7 8 7 7 7 7 8 8 8 9 9 10 10 10 10 11
5 3 3 4 4 4 2 3 3 3 3 1 2 2 5 8 8 7 5 3 2 1 0 1 1 1 2 2 4 4 5 5 6 6 6 7 6 6 7 7 8 8 9 10 11 11 11 10 9
3 4 2 1 3 3 3 2 2 6 3 5 6 5 6 7 6 6 5 4 3 2 1 1 1 1 2 2 2 3 4 4 5 5 6 6 6 6 7 7 7 8 9 9 10 10 10 9 8
2 2 2 1 2 3 3 3 2 4 6 6 7 8 7 8 8 7 6 4 3 2 2 1 2 2 2 3 2 2 2 3 3 4 5 5 4 4 5 5 6 7 7 8 8 7 8 9 9
1 1 0 1 1 2 3 2 3 3 4 3 6 7 8 8 7 5 5 4 4 3 2 2 3 3 2 3 2 2 2 2 3 4 4 5 4 3 4 4 5 6 7 7 6 6 6 6 7
1 0 1 1 0 1 3 0 1 4 2 5 6 7 8 8 7 5 5 4 4 4 3 2 3 3 3 2 2 2 2 2 3 3 4 5 5 4 3 4 4 5 6 6 6 6 5 5 5
1 3 4 2 0 1 4 2 4 4 5 5 6 6 7 7 6 6 6 5 5 4 3 3 4 3 3 3 2 3 3 3 3 3 4 5 5 5 4 3 3 4 5 7 7 7 6 5 5
4 4 2 4 0 1 4 4 6 2 6 6 5 5 5 6 6 6 5 4 4 4 3 3 3 4 4 3 3 3 3 4 4 4 4 5 6 6 5 3 3 4 5 5 4 4 5 5 4
4 1 2 4 1 2 3 5 6 2 6 6 6 6 6 5 5 5 5 5 5 5 5 4 3 4 3 3 3 4 3 3 3 4 4 4 5 6 5 3 3 5 4 3 4 3 4 4 4
3 2 3 4 2 2 3 6 7 3 6 7 6 6 6 7 8 6 5 5 5 4 5 4 4 4 4 3 3 3 3 3 3 3 3 4 4 5 5 4 4 4 4 3 3 4 3 3 3
3 3 4 5 3 3 5 7 7 4 4 6 6 7 7 9 7 4 4 5 5 5 5 5 5 4 4 3 2 2 1 1 1 2 3 3 4 4 4 3 3 3 3 3 4 4 4 3 2
3 3 4 4 1 3 3 6 6 3 5 7 9 9 9 7 4 4 4 5 6 6 6 5 5 5 4 3 2 2 2 1 1 2 3 3 3 4 4 3 3 3 3 3 3 3 2 2 2
4 5 5 4 3 1 1 6 5 3 2 3 5 6 7 8 8 6 6 6 6 7 7 7 6 5 5 4 3 3 3 3 2 2 1 2 2 3 3 3 3 3 3 3 3 4 4 2 1
5 5 5 3 0 3 0 3 7 4 4 4 4 4 5 6 6 6 7 7 7 7 6 6 6 5 5 5 5 5 3 2 2 1 0 1 2 2 3 3 3 2 2 3 3 3 3 3 2
6 1 2 2 3 1 1 2 7 3 4 6 6 6 6 6 6 8 8 8 7 7 7 6 6 5 5 5 6 5 3 2 1 1 1 1 1 1 2 2 2 2 2 3 2 2 3 2 3
3 4 5 4 4 1 3 3 6 4 5 5 5 5 5 5 5 6 6 5 5 5 6 6 6 5 5 6 5 6 5 4 3 2 2 1 0 0 0 1 1 2 2 2 2 2 3 2 2
4 5 4 4 3 4 3 3 8 6 5 6 6 5 4 4 5 4 5 6 6 7 7 6 6 6 5 6 6 6 6 6 6 4 4 3 1 1 2 1 1 1 2 2 2 2 2 2 2
2 7 6 3 4 5 3 4 7 6 5 3 3 3 3 3 4 5 6 7 7 8 8 7 8 7 6 7 6 5 5 4 4 4 4 4 3 3 2 2 2 2 2 2 2 1 1 1 2
4 3 5 6 2 2 5 7 8 3 3 2 2 2 2 4 4 5 4 6 7 8 8 9 9 7 7 7 6 5 5 5 5 4 4 3 3 2 2 3 2 2 2 2 3 2 1 1 1
4 7 5 4 2 3 5 5 4 6 4 2 1 2 4 3 3 3 3 5 6 6 6 6 7 8 7 7 7 6 6 6 5 4 5 4 4 3 3 3 3 2 2 2 3 2 2 2 1
3 4 5 4 4 4 3 6 5 5 5 4 4 4 3 3 3 3 3 3 3 4 5 6 6 6 6 7 6 6 6 5 5 5 5 5 3 4 4 3 3 3 3 3 3 3 3 3 2
3 5 6 4 3 4 3 7 5 4 4 3 4 3 3 3 3 3 2 2 2 3 4 5 6 6 7 6 6 6 6 5 5 5 5 5 4 4 4 3 3 3 3 3 4 4 3 3 3
Wind_Direction
48 77 75 57 55 54 46 344 289 20 45 34 60 82 93 91 104 145 257 225 193 172 190 190 117 99 86 72 66 61 65 64 69 75 74 78 84 89 93 94 93 91 93 95 93 90 88 89 90
94 85 56 59 78 73 347 308 91 136 147 136 76 77 80 70 87 124 292 198 147 146 156 140 115 99 86 76 69 64 66 65 66 71 74 77 84 89 93 92 91 90 93 93 93 95 92 92 93
91 58 75 68 88 138 174 232 163 93 115 107 72 57 93 119 143 175 212 156 126 122 130 133 121 106 90 80 76 68 65 66 65 70 74 78 85 92 92 90 88 87 91 93 94 97 95 95 94
80 46 54 70 81 198 194 193 160 116 72 57 93 68 48 346 174 176 144 136 125 118 109 130 119 108 96 81 78 72 68 65 67 71 73 80 87 91 93 92 90 89 90 91 94 96 95 95 95
62 73 63 57 39 339 280 186 140 121 101 71 98 101 18 346 71 120 130 136 137 134 116 114 117 104 93 82 76 69 65 65 67 70 74 81 87 92 93 95 92 90 88 88 92 94 93 91 90
57 67 81 86 5 346 342 144 120 115 116 114 114 120 286 352 96 130 135 137 139 143 130 91 102 100 88 80 79 75 70 68 68 69 73 77 81 83 86 92 94 95 92 92 94 95 94 91 88
97 87 113 135 111 354 196 140 136 133 134 166 146 129 210 272 154 128 119 122 108 99 95 73 60 69 78 75 74 74 71 68 69 73 72 70 73 76 80 85 92 95 94 95 95 95 92 88 87
116 98 87 114 138 250 190 139 154 144 156 138 134 143 197 203 146 111 91 87 86 77 68 58 49 52 51 56 70 71 69 66 66 70 74 71 68 65 67 72 81 90 92 92 91 91 88 84 83
87 79 126 194 174 203 175 133 138 109 105 91 125 171 181 136 124 106 83 67 70 84 38 57 47 48 64 64 65 58 61 61 60 62 65 61 53 50 50 60 75 82 88 90 90 88 86 81 81
84 117 205 203 181 175 168 161 163 105 93 82 59 64 104 119 128 131 133 139 154 204 251 91 94 69 60 71 64 56 55 53 54 59 59 56 53 52 52 58 72 76 82 86 85 83 79 73 69
124 167 204 212 181 160 153 167 148 141 191 202 186 169 135 133 141 153 164 169 189 201 199 138 139 104 92 89 73 64 65 57 55 59 62 64 60 55 51 53 52 60 72 73 74 73 72 71 69
133 216 189 192 149 144 160 157 149 182 218 206 182 161 151 157 168 176 178 184 180 167 178 151 124 105 95 97 85 78 78 75 70 65 68 72 67 59 55 58 54 59 73 77 75 76 75 72 69
118 277 287 180 154 167 143 163 180 232 238 148 138 147 163 174 185 191 188 182 168 171 182 159 142 129 117 101 95 91 88 91 86 82 76 89 86 76 67 64 66 67 78 85 84 81 77 74 67
191 96 354 337 176 172 140 337 135 254 177 140 154 172 181 186 189 186 189 191 185 183 183 150 140 137 118 111 110 107 102 97 91 89 90 100 101 95 84 79 75 71 80 89 91 90 85 75 72
64 40 4 345 330 199 118 339 255 244 137 154 175 185 188 200 193 196 200 195 186 179 167 158 152 132 125 124 117 104 104 107 96 90 97 109 112 108 101 95 88 83 92 94 91 84 81 76 69
53 51 349 303 280 149 127 261 271 215 154 180 192 193 194 208 207 209 200 190 182 163 157 163 149 133 130 125 111 100 101 102 98 95 95 107 115 117 109 105 101 99 100 99 97 88 83 72 66
34 45 272 297 279 141 157 252 282 191 170 193 203 203 204 216 227 223 206 193 187 173 160 153 139 132 131 119 100 93 91 86 90 97 94 104 112 115 111 109 106 106 98 94 107 90 97 93 80
234 238 257 261 263 150 205 254 278 244 188 201 206 206 208 216 228 219 204 192 183 166 157 151 140 126 117 101 86 75 68 60 69 83 96 107 112 117 114 109 107 108 103 90 96 100 85 92 95
195 214 260 260 238 189 230 257 272 256 199 205 211 212 217 227 233 216 198 182 167 158 157 158 148 143 129 114 115 109 101 65 55 63 83 107 120 124 117 115 115 116 119 126 125 116 98 80 85
204 242 269 290 274 189 249 274 275 235 214 212 211 215 218 222 217 210 189 177 177 175 173 168 166 163 163 153 140 132 124 100 78 46 58 82 116 133 138 133 141 135 129 125 131 125 112 86 70
231 209 232 252 336 22 355 315 294 279 255 232 218 215 216 210 208 206 193 187 180 181 183 182 178 174 173 150 112 89 71 56 48 39 34 36 93 117 129 139 140 144 146 154 156 145 138 144 68
248 235 214 209 134 292 59 289 287 275 281 257 240 220 220 213 204 200 194 191 191 193 185 180 175 172 171 157 151 146 147 162 196 183 157 59 93 107 118 131 140 147 152 160 171 155 154 149 154
221 235 177 183 165 335 343 213 285 310 274 260 248 232 224 212 199 199 199 196 193 186 179 178 171 173 171 168 168 161 158 170 147 120 111 84 59 90 115 143 145 152 161 168 165 156 156 156 163
158 78 59 54 79 312 256 194 280 253 238 258 248 237 230 216 205 205 200 184 182 177 171 170 173 180 174 172 172 173 171 166 154 162 161 168 339 2 99 152 154 162 164 174 176 167 166 171 167
88 87 28 1 8 262 275 216 254 261 245 234 238 237 225 209 202 201 192 187 187 183 181 178 179 186 181 178 182 186 182 176 182 188 189 187 196 226 239 202 195 187 185 179 160 160 173 180 180
161 139 153 205 240 283 313 244 259 277 288 252 220 201 188 203 204 206 206 199 195 191 188 185 189 193 187 188 191 188 183 181 192 193 190 198 204 212 210 202 205 199 180 171 154 155 182 171 180
133 160 162 140 170 275 288 292 305 315 353 17 54 102 198 218 216 215 212 205 196 193 194 192 192 195 194 195 191 189 189 190 198 199 195 202 207 204 193 195 197 192 175 168 155 163 181 156 162
144 144 102 117 153 268 297 293 273 298 302 320 293 239 240 231 229 223 212 211 201 198 197 192 194 199 198 193 194 197 198 200 199 194 203 206 206 202 192 197 191 189 184 169 163 171 173 155 174
107 114 117 123 155 167 267 278 242 258 271 261 259 254 240 226 223 220 218 215 195 182 186 194 199 200 198 197 197 197 201 200 195 200 207 203 199 195 199 203 195 193 194 184 173 183 175 171 180
168 164 147 156 207 181 192 265 286 280 283 271 271 275 258 234 227 213 198 169 168 184 193 199 202 204 206 198 196 201 200 194 199 209 210 199 198 201 203 198 195 202 198 190 187 191 186 186 193
Height
1506 1506 1507 1508 1512 1524 1527 1523 1519 1518 1518 1518 1517 1517 1519 1522 1525 1530 1526 1523 1522 1522 1521 1520 1520 1519 1519 1519 1518 1518 1517 1517 1516 1516 1516 1516 1516 1517 1517 1517 1518 1518 1519 1520 1520 1521 1521 1522 1522
1507 1507 1509 1509 1521 1535 1531 1522 1520 1518 1518 1518 1519 1519 1520 1522 1523 1524 1524 1523 1523 1523 1522 1521 1521 1520 1520 1520 1519 1519 1518 1517 1517 1516 1516 1516 1517 1517 1518 1518 1519 1520 1520 1521 1521 1522 1523 1523 1524
1508 1508 1510 1513 1525 1532 1528 1520 1519 1518 1519 1519 1520 1521 1522 1523 1524 1524 1524 1524 1524 1523 1523 1522 1522 1521 1521 1521 1520 1520 1519 1518 1517 1516 1516 1517 1517 1518 1519 1520 1520 1521 1521 1522 1523 1523 1524 1524 1525
1509 1510 1512 1520 1525 1524 1521 1519 1518 1518 1519 1520 1520 1522 1523 1524 1524 1525 1525 1525 1525 1524 1524 1524 1523 1523 1522 1522 1521 1521 1520 1520 1518 1518 1518 1518 1519 1519 1520 1521 1521 1522 1523 1523 1524 1525 1525 1526 1526
1509 1511 1519 1527 1525 1521 1519 1518 1518 1519 1520 1521 1521 1523 1524 1525 1525 1525 1526 1526 1526 1526 1525 1525 1525 1524 1524 1523 1523 1522 1522 1521 1520 1520 1520 1520 1520 1521 1521 1522 1523 1523 1524 1525 1526 1526 1527 1527 1528
1511 1513 1528 1532 1526 1521 1519 1519 1519 1519 1520 1521 1522 1523 1525 1526 1525 1526 1526 1527 1527 1527 1526 1526 1526 1526 1525 1525 1524 1524 1523 1523 1522 1521 1522 1522 1522 1522 1523 1523 1524 1525 1526 1526 1527 1527 1528 1528 1529
1512 1518 1527 1528 1527 1523 1520 1519 1519 1520 1521 1522 1522 1524 1525 1526 1526 1527 1527 1528 1528 1528 1528 1528 1527 1527 1527 1526 1526 1525 1525 1525 1524 1524 1523 1524 1524 1524 1525 1525 1526 1526 1527 1528 1528 1529 1529 1530 1530
1512 1518 1525 1527 1527 1524 1520 1519 1520 1520 1521 1522 1523 1523 1524 1526 1526 1527 1528 1528 1529 1529 1529 1529 1528 1528 1528 1527 1527 1527 1526 1526 1526 1526 1526 1526 1526 1526 1527 1527 1527 1528 1528 1529 1530 1530 1531 1531 1532
1513 1523 1529 1525 1524 1522 1519 1519 1520 1521 1521 1522 1522 1523 1524 1525 1526 1527 1528 1529 1529 1529 1529 1529 1529 1529 1529 1529 1528 1528 1528 1528 1528 1527 1528 1528 1528 1528 1528 1528 1529 1529 1530 1531 1531 1531 1532 1532 1533
1514 1525 1522 1518 1518 1518 1518 1519 1520 1521 1522 1522 1522 1523 1524 1525 1526 1527 1528 1529 1529 1530 1530 1530 1530 1530 1530 1530 1530 1529 1530 1529 1529 1529 1529 1529 1529 1530 1530 1530 1530 1531 1531 1532 1532 1533 1533 1534 1534
1515 1519 1517 1516 1516 1517 1518 1519 1519 1520 1522 1521 1521 1522 1524 1525 1526 1527 1528 1529 1530 1530 1531 1531 1531 1531 1531 1531 1531 1531 1531 1531 1531 1531 1531 1531 1531 1531 1531 1531 1531 1532 1532 1533 1533 1534 1534 1535 1535
1515 1516 1515 1516 1516 1517 1518 1519 1519 1520 1520 1520 1521 1522 1523 1525 1526 1527 1528 1529 1530 1531 1531 1531 1532 1532 1532 1532 1532 1532 1532 1532 1532 1532 1532 1532 1532 1532 1533 1533 1533 1533 1534 1534 1534 1535 1535 1536 1537
1516 1516 1515 1515 1516 1517 1517 1518 1519 1519 1519 1520 1521 1522 1523 1525 1526 1527 1529 1530 1530 1531 1531 1532 1532 1532 1532 1533 1533 1533 1533 1533 1533 1533 1533 1533 1533 1534 1534 1534 1534 1535 1535 1535 1536 1536 1536 1537 1538
1516 1516 1516 1516 1516 1516 1518 1519 1519 1518 1518 1519 1520 1522 1523 1524 1526 1527 1528 1529 1530 1531 1532 1532 1532 1533 1533 1533 1533 1533 1533 1533 1534 1534 1534 1534 1534 1534 1535 1535 1535 1536 1536 1537 1537 1537 1537 1538 1539
1516 1517 1518 1517 1516 1517 1518 1521 1519 1517 1518 1519 1520 1521 1522 1524 1525 1527 1528 1529 1530 1531 1532 1532 1533 1533 1533 1533 1534 1534 1534 1534 1534 1534 1535 1535 1535 1535 1535 1536 1536 1537 1537 1537 1538 1538 1538 1539 1539
1517 1522 1526 1519 1517 1517 1522 1526 1517 1517 1517 1518 1519 1520 1521 1523 1525 1526 1528 1529 1530 1531 1531 1532 1533 1533 1533 1534 1534 1534 1534 1534 1535 1535 1535 1535 1535 1536 1536 1536 1537 1537 1538 1538 1538 1539 1539 1539 1540
1525 1531 1529 1523 1517 1517 1521 1523 1516 1515 1516 1516 1518 1519 1520 1522 1524 1525 1527 1528 1529 1530 1531 1532 1533 1533 1534 1534 1534 1534 1535 1535 1535 1535 1536 1536 1536 1536 1536 1537 1537 1538 1538 1539 1539 1539 1540 1540 1540
1531 1530 1528 1526 1519 1519 1521 1521 1515 1514 1514 1515 1516 1517 1519 1520 1522 1524 1525 1527 1529 1530 1531 1532 1533 1533 1534 1534 1534 1534 1535 1535 1535 1536 1536 1536 1536 1537 1537 1537 1537 1538 1538 1539 1539 1540 1540 1540 1540
1522 1525 1527 1523 1516 1519 1520 1519 1514 1512 1513 1513 1514 1515 1516 1518 1520 1522 1524 1526 1527 1529 1530 1531 1532 1533 1533 1533 1534 1534 1534 1535 1535 1536 1536 1536 1536 1537 1537 1537 1538 1538 1538 1539 1539 1540 1540 1541 1541
1521 1525 1525 1520 1515 1518 1520 1518 1513 1511 1511 1510 1511 1512 1514 1516 1518 1520 1522 1524 1525 1527 1528 1530 1531 1532 1533 1533 1534 1534 1535 1535 1535 1535 1536 1536 1536 1537 1537 1537 1537 1538 1538 1539 1539 1540 1540 1540 1541
1520 1523 1522 1522 1518 1517 1520 1521 1514 1509 1509 1509 1509 1510 1511 1513 1515 1517 1519 1521 1523 1525 1527 1528 1530 1531 1532 1533 1534 1534 1534 1535 1535 1535 1535 1536 1536 1536 1537 1537 1537 1537 1538 1538 1539 1539 1540 1540 1541
1522 1514 1515 1518 1525 1530 1525 1536 1519 1512 1509 1507 1507 1508 1509 1511 1513 1515 1517 1519 1521 1523 1525 1527 1528 1530 1531 1532 1533 1533 1533 1534 1534 1534 1535 1535 1536 1536 1536 1536 1537 1537 1537 1538 1538 1539 1539 1540 1540
1513 1510 1513 1517 1523 1530 1528 1534 1525 1513 1511 1507 1505 1505 1507 1509 1511 1513 1515 1517 1519 1521 1523 1525 1527 1528 1530 1531 1532 1532 1533 1533 1534 1534 1534 1535 1535 1535 1535 1535 1536 1536 1536 1537 1537 1538 1539 1539 1539
1508 1513 1518 1524 1529 1538 1529 1534 1529 1516 1509 1504 1502 1503 1504 1506 1509 1511 1513 1515 1517 1520 1522 1523 1525 1527 1528 1529 1530 1531 1532 1532 1532 1533 1533 1534 1534 1534 1534 1535 1535 1535 1535 1536 1536 1537 1537 1538 1538
1511 1523 1538 1540 1546 1542 1528 1530 1525 1506 1502 1501 1500 1500 1502 1504 1506 1508 1511 1513 1515 1517 1519 1521 1523 1524 1526 1527 1528 1529 1530 1531 1531 1531 1532 1532 1533 1533 1533 1533 1533 1534 1534 1535 1535 1535 1536 1536 1537
1513 1520 1538 1546 1549 1542 1529 1530 1515 1501 1499 1498 1498 1499 1501 1502 1504 1506 1508 1510 1512 1515 1517 1519 1521 1522 1524 1525 1526 1527 1528 1529 1530 1530 1531 1531 1531 1531 1532 1532 1532 1532 1533 1533 1533 1534 1534 1535 1535
1515 1520 1520 1534 1537 1542 1535 1525 1510 1499 1498 1497 1497 1498 1499 1501 1503 1504 1506 1508 1510 1512 1514 1516 1518 1520 1521 1522 1524 1525 1526 1527 1528 1528 1529 1529 1529 1530 1530 1530 1530 1530 1531 1531 1531 1532 1532 1533 1533
1508 1515 1526 1534 1543 1546 1537 1529 1522 1505 1501 1499 1498 1498 1499 1500 1501 1503 1504 1506 1508 1510 1512 1514 1516 1517 1519 1520 1521 1523 1524 1525 1526 1526 1527 1527 1527 1528 1528 1528 1528 1528 1529 1529 1529 1530 1530 1530 1531
1513 1517 1523 1533 1535 1544 1545 1533 1507 1504 1501 1499 1498 1498 1498 1499 1500 1501 1502 1504 1506 1508 1510 1512 1513 1515 1516 1517 1519 1520 1521 1522 1523 1524 1524 1525 1525 1525 1526 1526 1526 1526 1526 1527 1527 1528 1528 1528 1529
1507 1512 1520 1530 1533 1537 1540 1531 1501 1501 1499 1498 1497 1496 1496 1497 1498 1500 1501 1502 1504 1506 1507 1509 1510 1512 1513 1515 1516 1517 1518 1520 1520 1521 1522 1522 1523 1523 1523 1524 1524 1524 1524 1524 1525 1525 1526 1526 1526